Weather History for Atlantic City, NJ

Change the Weather History Date:

Wednesday, December 19, 2012

  Actual Average Record
Temperature  
Mean Temperature 43 °F 36 °F  
Max Temperature 51 °F 45 °F 62 °F (1931)
Min Temperature 34 °F 27 °F 6 °F (1964)
Degree Days  
Heating Degree Days 22 29  
Month to date heating degree days 361 499  
Since 1 July heating degree days 1327 1406  
Cooling Degree Days 0 0  
Month to date cooling degree days 0 0  
Year to date cooling degree days 1218 1055  
Moisture  
Dew Point 29 °F    
Average Humidity 59    
Maximum Humidity 76    
Minimum Humidity 42    
Precipitation  
Precipitation 0.00 in 0.12 in 1.06 in (1934)
Month to date precipitation 3.47 2.34  
Year to date precipitation 44.92 40.40  
Snow  
Snow 0.00 in 0.10 in 11.40 in (2009)
Month to date snowfall 0.0 2.1  
Since 1 July snowfall 2.5 2.3  
Snow Depth 0.00 in    
Sea Level Pressure  
Sea Level Pressure 29.91 in    
Wind  
Wind Speed 13 mph (WNW)    
Max Wind Speed 23 mph    
Max Gust Speed 31 mph    
Visibility 10 miles    
Events      
T = Trace of Precipitation, MM = Missing Value Source: NWS Daily Summary

Daily Weather History Graph

Daily Weather History Graph

Search for Another Location

Airport:

Trip Planner

Search our weather history database for the weather conditions in past years. The results will help you decide how hot, cold, wet, or windy it might be!

Date:

Astronomy

Dec. 19, 2012 Rise Set
Actual Time 7:14 AM EST 4:37 PM EST
Civil Twilight 6:43 AM EST 5:07 PM EST
Nautical Twilight 6:10 AM EST 5:41 PM EST
Astronomical Twilight 5:37 AM EST 6:14 PM EST
Moon 11:23 AM EST (12/19) No Moon Set
Length of Visible Light 10h 23m
Length of Day
9h 23m
Waxing Crescent, 45% of the Moon is Illuminated
Dec 19
Waxing Crescent
Dec 20
First Quarter
Dec 28
Full
Jan 4
Last Quarter
Jan 11
New

Hourly Weather History & Observations

Time (EST) Temp. Windchill Dew Point Humidity Pressure Visibility Wind Dir Wind Speed Gust Speed Precip Events Conditions
12:54 AM 41.0 °F 33.9 °F 28.0 °F 60% 29.74 in 10.0 mi West 12.7 mph - N/A   Clear
1:54 AM 41.0 °F 34.7 °F 28.0 °F 60% 29.75 in 10.0 mi West 10.4 mph - N/A   Clear
2:54 AM 39.9 °F 32.5 °F 28.9 °F 65% 29.76 in 10.0 mi West 12.7 mph - N/A   Clear
3:54 AM 39.9 °F 32.5 °F 28.9 °F 65% 29.77 in 10.0 mi West 12.7 mph - N/A   Scattered Clouds
4:54 AM 39.0 °F 32.8 °F 28.9 °F 67% 29.78 in 10.0 mi West 9.2 mph - N/A   Scattered Clouds
5:54 AM 39.0 °F 31.8 °F 28.0 °F 65% 29.81 in 10.0 mi West 11.5 mph - N/A   Clear
6:54 AM 37.9 °F 30.9 °F 28.9 °F 70% 29.85 in 10.0 mi WSW 10.4 mph - N/A   Clear
7:54 AM 37.9 °F 32.1 °F 30.0 °F 73% 29.87 in 10.0 mi West 8.1 mph - N/A   Partly Cloudy
8:54 AM 42.1 °F 34.9 °F 30.0 °F 62% 29.88 in 10.0 mi WNW 13.8 mph - N/A   Clear
9:54 AM 45.0 °F 37.6 °F 30.0 °F 56% 29.88 in 10.0 mi WNW 17.3 mph 25.3 mph N/A   Clear
10:54 AM 46.9 °F - 30.0 °F 52% 29.88 in 10.0 mi NW 18.4 mph 26.5 mph N/A   Clear
11:54 AM 48.0 °F - 30.0 °F 50% 29.86 in 10.0 mi NW 18.4 mph 25.3 mph N/A   Clear
12:54 PM 50.0 °F - 30.0 °F 46% 29.86 in 10.0 mi NW 20.7 mph - N/A   Clear
1:54 PM 50.0 °F - 30.0 °F 46% 29.87 in 10.0 mi NW 21.9 mph 27.6 mph N/A   Clear
2:54 PM 50.0 °F - 28.9 °F 44% 29.91 in 10.0 mi WNW 18.4 mph 26.5 mph N/A   Clear
3:54 PM 48.0 °F - 30.0 °F 50% 29.94 in 10.0 mi WNW 12.7 mph 23.0 mph N/A   Partly Cloudy
4:54 PM 46.0 °F 39.3 °F 30.0 °F 54% 29.98 in 10.0 mi WNW 16.1 mph 23.0 mph N/A   Partly Cloudy
5:54 PM 44.1 °F 36.8 °F 28.9 °F 55% 30.02 in 10.0 mi WNW 16.1 mph 23.0 mph N/A   Clear
6:54 PM 43.0 °F 36.0 °F 28.0 °F 56% 30.05 in 10.0 mi WNW 13.8 mph - N/A   Clear
7:54 PM 39.0 °F 34.8 °F 28.0 °F 65% 30.09 in 10.0 mi NW 5.8 mph - N/A   Clear
8:54 PM 36.0 °F 33.3 °F 28.0 °F 73% 30.12 in 10.0 mi WNW 3.5 mph - N/A   Clear
9:54 PM 36.0 °F 29.6 °F 28.0 °F 73% 30.14 in 10.0 mi WNW 8.1 mph - N/A   Clear
10:54 PM 35.1 °F 30.1 °F 26.1 °F 70% 30.15 in 10.0 mi NNW 5.8 mph - N/A   Clear
11:54 PM 37.0 °F 29.3 °F 27.0 °F 67% 30.14 in 10.0 mi WNW 11.5 mph - N/A   Clear